Weather History for Dunkirk, NY

Change the Weather History Date:

Thursday, March 14, 2013

  Actual Average Record
Temperature  
Mean Temperature 26 °F -  
Max Temperature 30 °F 43 °F 79 °F (1990)
Min Temperature 23 °F 28 °F 5 °F (2005)
Degree Days  
Heating Degree Days 38    
Moisture  
Dew Point 19 °F    
Average Humidity 73    
Maximum Humidity 88    
Minimum Humidity 54    
Precipitation  
Precipitation 0.00 in - - ()
Sea Level Pressure  
Sea Level Pressure 30.10 in    
Wind  
Wind Speed 14 mph (WNW)    
Max Wind Speed 21 mph    
Max Gust Speed 30 mph    
Visibility 8 miles    
Events Snow    
Averages and records for this station are not official NWS values.
T = Trace of Precipitation, MM = Missing Value Source: NWS Daily Summary

Daily Weather History Graph

Daily Weather History Graph

Search for Another Location

Airport:

Trip Planner

Search our weather history database for the weather conditions in past years. The results will help you decide how hot, cold, wet, or windy it might be!

Date:

Astronomy

Mar. 14, 2013 Rise Set
Actual Time 7:30 AM EDT 7:22 PM EDT
Civil Twilight 7:02 AM EDT 7:50 PM EDT
Nautical Twilight 6:29 AM EDT 8:23 PM EDT
Astronomical Twilight 5:56 AM EDT 8:56 PM EDT
Moon 8:38 AM EDT (3/14) 10:42 PM EDT (3/14)
Length of Visible Light 12h 48m
Length of Day
11h 52m
Waxing Crescent, 9% of the Moon is Illuminated
Mar 14
Waxing Crescent
Mar 19
First Quarter
Mar 27
Full
Apr 3
Last Quarter
Apr 10
New

Hourly Weather History & Observations

Time (EDT) Temp. Windchill Dew Point Humidity Pressure Visibility Wind Dir Wind Speed Gust Speed Precip Events Conditions
12:53 AM 27.0 °F 13.5 °F 15.1 °F 61% 30.06 in 10.0 mi WNW 19.6 mph 28.8 mph 0.00 in   Overcast
1:53 AM 23.0 °F 10.1 °F 18.0 °F 81% 30.08 in 10.0 mi NNW 15.0 mph 21.9 mph 0.00 in   Overcast
2:33 AM 23.0 °F 11.1 °F 17.6 °F 80% 30.06 in 7.0 mi NW 12.7 mph - 0.00 in Snow Light Snow
2:53 AM 23.0 °F 10.1 °F 18.0 °F 81% 30.09 in 4.0 mi NW 15.0 mph 20.7 mph 0.00 in Snow Light Snow
3:03 AM 23.0 °F 11.7 °F 17.6 °F 80% 30.06 in 2.0 mi NW 11.5 mph - 0.00 in Snow Light Snow
3:20 AM 23.0 °F 11.7 °F 19.4 °F 86% 30.06 in 3.0 mi NW 11.5 mph - 0.00 in Snow Light Snow
3:37 AM 23.0 °F 12.4 °F 19.4 °F 86% 30.06 in 2.5 mi NW 10.4 mph 19.6 mph 0.00 in Snow Light Snow
3:45 AM 23.0 °F 11.1 °F 19.4 °F 86% 30.06 in 2.0 mi NW 12.7 mph 18.4 mph 0.00 in Snow Light Snow
3:49 AM 23.0 °F 11.7 °F 19.4 °F 86% 30.06 in 1.8 mi NW 11.5 mph - 0.00 in Snow Light Snow
3:53 AM 23.0 °F 12.4 °F 19.0 °F 85% 30.09 in 1.8 mi NNW 10.4 mph - 0.00 in Snow Light Snow
3:59 AM 23.0 °F 13.1 °F 19.4 °F 86% 30.06 in 2.0 mi NW 9.2 mph - 0.00 in Snow Light Snow
4:18 AM 24.8 °F 14.6 °F 19.4 °F 80% 30.06 in 4.0 mi NW 10.4 mph - 0.00 in Snow Light Snow
4:36 AM 23.0 °F 11.7 °F 19.4 °F 86% 30.06 in 1.8 mi NW 11.5 mph - 0.00 in Snow Light Snow
4:50 AM 23.0 °F 13.9 °F 19.4 °F 86% 30.06 in 3.0 mi NW 8.1 mph - 0.00 in Snow Light Snow
4:53 AM 23.0 °F 14.7 °F 19.9 °F 88% 30.09 in 5.0 mi NW 6.9 mph - 0.00 in Snow Light Snow
5:32 AM 24.8 °F 15.3 °F 21.2 °F 86% 30.07 in 5.0 mi NW 9.2 mph - 0.00 in Snow Light Snow
5:42 AM 24.8 °F 15.3 °F 19.4 °F 80% 30.07 in 5.0 mi NW 9.2 mph - 0.00 in Snow Light Snow
5:53 AM 24.1 °F 16.0 °F 19.9 °F 84% 30.10 in 10.0 mi NW 6.9 mph - 0.00 in   Overcast
6:53 AM 26.1 °F 15.0 °F 18.0 °F 71% 30.12 in 7.0 mi WNW 12.7 mph 19.6 mph 0.00 in Snow Light Snow
7:22 AM 26.6 °F 16.2 °F 17.6 °F 69% 30.10 in 7.0 mi WNW 11.5 mph 19.6 mph 0.00 in Snow Light Snow
7:53 AM 26.1 °F 15.0 °F 14.0 °F 60% 30.13 in 10.0 mi WNW 12.7 mph 25.3 mph 0.00 in   Overcast
8:53 AM 27.0 °F 14.7 °F 15.1 °F 61% 30.15 in 10.0 mi WNW 16.1 mph 24.2 mph N/A   Overcast
9:53 AM 27.0 °F 16.1 °F 16.0 °F 63% 30.16 in 10.0 mi West 12.7 mph 21.9 mph N/A   Mostly Cloudy
10:53 AM 28.0 °F 17.5 °F 16.0 °F 61% 30.16 in 10.0 mi West 12.7 mph 25.3 mph N/A   Mostly Cloudy
11:53 AM 28.9 °F 18.2 °F 17.1 °F 61% 30.17 in 10.0 mi West 13.8 mph 24.2 mph N/A   Overcast
12:53 PM 28.9 °F 17.3 °F 16.0 °F 58% 30.16 in 10.0 mi West 16.1 mph 25.3 mph N/A   Mostly Cloudy
1:53 PM 30.0 °F 21.1 °F 19.0 °F 64% 30.16 in 10.0 mi West 10.4 mph 26.5 mph N/A   Mostly Cloudy
2:53 PM 30.9 °F 19.4 °F 19.9 °F 64% 30.14 in 10.0 mi WSW 17.3 mph 27.6 mph N/A   Overcast
3:53 PM 30.9 °F 18.4 °F 19.9 °F 64% 30.14 in 10.0 mi WSW 20.7 mph 29.9 mph 0.00 in   Overcast
4:53 PM 30.0 °F 17.2 °F 19.0 °F 64% 30.13 in 10.0 mi West 20.7 mph 28.8 mph N/A   Overcast
5:53 PM 30.9 °F 19.8 °F 16.0 °F 54% 30.13 in 10.0 mi West 16.1 mph 24.2 mph N/A   Mostly Cloudy
6:48 PM 30.2 °F 18.5 °F 19.4 °F 64% 30.10 in 10.0 mi WSW 17.3 mph 27.6 mph N/A   Overcast
6:53 PM 30.0 °F 18.7 °F 19.0 °F 64% 30.13 in 10.0 mi West 16.1 mph 28.8 mph N/A   Overcast
7:00 PM 30.2 °F 18.9 °F 19.4 °F 64% 30.10 in 10.0 mi WSW 16.1 mph 28.8 mph N/A   Overcast
7:53 PM 28.9 °F 18.2 °F 19.9 °F 69% 30.13 in 10.0 mi WSW 13.8 mph 25.3 mph N/A   Scattered Clouds
8:53 PM 30.0 °F 18.7 °F 19.9 °F 66% 30.13 in 10.0 mi WSW 16.1 mph 23.0 mph N/A   Mostly Cloudy
9:32 PM 30.2 °F 19.8 °F 21.2 °F 69% 30.11 in 10.0 mi West 13.8 mph 23.0 mph N/A   Overcast
9:53 PM 28.9 °F 19.2 °F 21.0 °F 72% 30.13 in 10.0 mi West 11.5 mph - N/A   Mostly Cloudy
10:27 PM 28.4 °F 18.5 °F 21.2 °F 74% 30.10 in 10.0 mi WSW 11.5 mph 23.0 mph N/A   Mostly Cloudy
10:53 PM 28.9 °F 20.4 °F 21.0 °F 72% 30.12 in 10.0 mi West 9.2 mph - N/A   Mostly Cloudy
11:03 PM 28.4 °F 19.7 °F 21.2 °F 74% 30.09 in 10.0 mi WSW 9.2 mph - N/A   Scattered Clouds
11:53 PM 28.9 °F 21.1 °F 21.9 °F 75% 30.10 in 10.0 mi SW 8.1 mph - N/A   Clear